Погода в Момбецу

Япония     44°20′47″N   143°21′15″E
темп.,
°C
ветер,
м/с
пор.,
м/с
влажн.,
%
обл.,
%
осадки,
мм/ч
давл.,
гПа
погр.,
м
28 июля, ср
ср2800:00+20ю119874 0.0 100515
03:00+21юз22975 0.0 100534
06:00+23зюз11893 0.0 100692
09:00+29всв21628 0.0 1006899
12:00+30св44559 0.0 10051111
15:00+29св45587 0.0 1004707
18:00+24с228144 0.0 100484
21:00+21юз11885 0.0 100515
29 июля, чт
чт2900:00+21ююз22905 0.0 100535
03:00+21юз22892 0.0 100440
06:00+24юз12795 0.0 1005117
09:00+29св215928 0.0 10051046
12:00+29св4358100 0.0 1003857
15:00+28ссв335992 0.1 1003747
18:00+24с11834 0.1 100345
21:00+21ююз21920 0.1 100418
30 июля, пт
пт3000:00+21ююз22923 0.0 100432
03:00+20юз22940 0.0 100328
06:00+23юз12810 0.0 1004131
09:00+29в116121 0.0 10041008
12:00+29всв325863 0.0 1002797
15:00+30в335316 0.1 10011142
18:00+24с247996 0.0 1003144
21:00+23з118016 0.0 100421
31 июля, сб
сб3100:00+21зюз119215 0.0 100411
03:00+20юз11952 0.0 100412
06:00+23зюз11841 0.0 1005118
09:00+28ссв22613 0.0 1006841
12:00+29ссв435711 0.0 10061007
15:00+27св34644 0.0 1006651
18:00+23св23842 0.0 1008235
21:00+19ссз1199100 0.0 100911
1 августа, вс
вс100:00+18с119984 0.0 100937
03:00+19ссв1297100 0.0 1009138
06:00+18с1298100 0.1 1010262
09:00+21св128694 0.1 1010437
12:00+25всв446999 0.0 1009742
15:00+20всв2394100 0.0 1010296
18:00+19всв1299100 0.3 1010125
21:00+19всв11100100 1.1 101197